Flag for Iran Weather past 2 weeks in Rafsanjan, Iran

Now
64 °F

Clear.


Feels Like: 64 °F
Forecast: 54 / 81 °F
Wind: 5 mph from North

Location: Kerman Airport

Current Time: Oct 24, 2014 at 8:33:35 PM

Latest Report: Oct 24, 2014 at 7:30 PM


Visibility: 10 mi

Pressure: 30.15 "Hg

Humidity: 11%

Dew point: 9 °F

Location of RafsanjanLocation

Historic Weather in Rafsanjan — Graph

°F

Rafsanjan temperature yesterday

Maximum temperature yesterday: 77 °F (at 2:00 PM)
Minimum temperature yesterday: 41 °F (at 5:30 AM)
Average temperature yesterday: 63 °F

Past Weeks' High & Low Weather Summary

 TemperatureHumidityPressure
High84 °F (Oct 16, 2:00 PM)56% (Oct 13, 5:30 AM)30.36 "Hg (Oct 13, 5:30 AM)
Low37 °F (Oct 24, 5:30 AM)4% (Oct 24, 2:00 PM)30.04 "Hg (Oct 18, 3:00 PM)
Average67 °F21%30.21 "Hg
* Reported Oct 9 7:30 PM — Oct 24 7:30 PM, Rafsanjan, Weather by CustomWeather, © 2014

Note: Actual official high and low records may vary slightly from our data, if they occured in-between our weather recording intervals... More about our weather records

Advertising

Rafsanjan weather history for previous 24 hours

 ConditionsComfort  
Time TempWeatherWind HumidityBarometerVisibility
7:30 PM
Oct 24
64 °FClear.5 mph11%30.15 "Hg10 mi
6:30 PM66 °FClear.9 mph9%30.12 "Hg10 mi
5:30 PM73 °FSunny.5 mph7%30.12 "Hg10 mi
4:30 PM81 °FSunny.7 mph4%30.09 "Hg10 mi
3:30 PM82 °FSunny.12 mph5%30.09 "Hg10 mi
3:00 PM82 °FSunny.5 mph4%30.09 "Hg10 mi
2:30 PM81 °FSunny.12 mph5%30.09 "Hg10 mi
2:00 PM81 °FSunny.9 mph4%30.12 "Hg10 mi
1:30 PM81 °FSunny.7 mph5%30.12 "Hg10 mi
1:00 PM79 °FSunny.7 mph5%30.12 "Hg10 mi
12:30 PM79 °FSunny.7 mph5%30.15 "Hg10 mi
12:00 PM77 °FSunny.7 mph7%30.18 "Hg10 mi
11:30 AM77 °FSunny.7 mph6%30.18 "Hg10 mi
11:00 AM75 °FSunny.7 mph11%30.21 "Hg10 mi
10:30 AM73 °FSunny.No wind12%30.21 "Hg10 mi
9:30 AM66 °FSunny.5 mph15%30.24 "Hg10 mi
9:00 AM64 °FSunny.7 mph18%30.24 "Hg10 mi
8:30 AM64 °FSunny.No wind18%30.24 "Hg10 mi
8:00 AM57 °FSunny.5 mph21%30.24 "Hg10 mi
7:30 AM48 °FSunny.7 mph27%30.27 "Hg10 mi
6:30 AM41 °FSunny.7 mph33%30.24 "Hg10 mi
5:30 AM37 °FClear.No wind41%30.24 "Hg10 mi
4:30 AM39 °FClear.No wind39%30.24 "Hg10 mi
3:30 AM41 °FClear.5 mph39%30.24 "Hg10 mi
2:30 AM41 °FClear.5 mph39%30.24 "Hg10 mi
1:30 AM45 °FClear.5 mph37%30.24 "Hg10 mi
12:30 AM48 °FClear.7 mph34%30.24 "Hg10 mi
11:30 PM
Oct 23
48 °FClear.5 mph29%30.27 "Hg10 mi
10:30 PM52 °FClear.5 mph26%30.27 "Hg10 mi
9:30 PM54 °FClear.7 mph24%30.27 "Hg10 mi
8:30 PM59 °FClear.9 mph20%30.27 "Hg10 mi
Weather by CustomWeather, © 2014

See weather overviewHow to use our weather pages